Regional Weather Roundup
Issued by NWS

Home | Current Version | Previous Version | Text Only | Print | Product List | Glossary On
Versions: 1 2 3 4 5 6 7 8 9 10 11 12 13 14 15 16 17 18 19 20 21 22 23 24 25 26 27 28 29 30 31 32 33 34 35 36 37 38 39 40 41 42 43 44 45 46 47 48 49 50
000
ASUS43 KDTX 310501
RWRMI
MICHIGAN HOURLY REGIONAL WEATHER ROUNDUP
NATIONAL WEATHER SERVICE DETROIT/PONTIAC MI
100 AM EDT TUE MAY 31 2016

NOTE: "FAIR" INDICATES FEW OR NO CLOUDS BELOW 12,000 FEET WITH NO
SIGNIFICANT WEATHER AND/OR OBSTRUCTION TO VISIBILITY.

MIZ047>049-052>055-059>063-066>070-074>076-081>083-310600-
SOUTHEAST LOWER MICHIGAN

CITY           SKY/WX    TMP DP  RH WIND       PRES   REMARKS
ADRIAN         CLOUDY    63  54  72 CALM      30.00S
ALMA           CLEAR     54  49  83 CALM      30.01S
ANN ARBOR      CLOUDY    60  52  74 CALM      29.99S
BAD AXE        CLEAR     55  53  92 CALM      30.00S
CARO           CLEAR     55  51  85 CALM      29.99S
DETROIT CITY   CLEAR     70  53  54 NW3       29.97S
DETROIT        PTCLDY    69  53  56 NW3       29.98S
FLINT          PTCLDY    68  49  50 CALM      30.00S
GROSSE ILE     CLEAR     66  61  82 CALM      29.96S
HILLSDALE      CLOUDY    62  54  74 CALM      30.01S
HOWELL         CLEAR     65  51  60 CALM      30.00S

CITY           SKY/WX    TMP DP  RH WIND       PRES   REMARKS
JACKSON        PTCLDY    60  55  83 W3        30.01R
LAMBERTVILLE   CLEAR     62  56  81 CALM      29.99S
LANSING        CLEAR     62  55  77 CALM      30.01R
LAPEER         FAIR      61  51  68 CALM      30.00S
MASON          CLEAR     61  54  78 CALM      30.01R
MONROE         PTCLDY    63  60  92 N3        29.97F
PONTIAC        CLEAR     67  53  61 NW6       29.99S
PORT HOPE        N/A     58  56  93 CALM      29.98S
PORT HURON     CLEAR     61  59  94 NW3       29.97S
TRI CITIES     CLEAR     65  48  54 CALM      30.00S
MIDLAND        FAIR      54  49  85 CALM      30.00R
TROY           CLEAR     71  53  53 NW3       30.00S
SAGINAW HB     CLEAR     61  46  59 CALM      29.99S
$$
MIZ043>046-050>051-056>058-064>065-071>073-077>080-310600-
SOUTHWEST LOWER MICHIGAN

CITY           SKY/WX    TMP DP  RH WIND       PRES   REMARKS
BATTLE CREEK   PTCLDY    62  55  77 CALM      30.02R
BENTON HARBOR  PTCLDY    62  56  80 CALM      30.00S
BIG RAPIDS     PTCLDY    55  53  93 CALM      30.01S
COLDWATER      CLOUDY    61  55  80 CALM      30.01S
FREMONT        FAIR      58  55  90 CALM      30.01R
HOLLAND        CLEAR     60  56  86 CALM      30.01S
GRAND RAPIDS   CLEAR     64  55  72 CALM      30.01S
IONIA          FAIR      62  53  72 CALM      30.01R
KALAMAZOO      CLEAR     65  55  70 N3        30.01S
LUDINGTON      CLEAR     54  53  99 CALM      30.01S
MARSHALL       PTCLDY    62  56  83 CALM      30.01R
MOUNT PLEASANT CLEAR     55  51  85 CALM      30.00S
MUSKEGON       CLOUDY    59  55  87 CALM      30.01S
SOUTH HAVEN    PTCLDY    60  57  92 CALM      30.01S
$$
MIZ016>042-310600-
NORTHERN LOWER MICHIGAN

CITY           SKY/WX    TMP DP  RH WIND       PRES   REMARKS
ALPENA         CLEAR     57  51  80 CALM      30.00S
BEAVER ISLAND  CLEAR     53  51  92 NW5       30.03R
BELLAIRE       CLEAR     54  52  94 CALM      30.01S
CADILLAC       CLEAR     54  49  85 CALM      30.01S
CHARLEVOIX     CLEAR     54  51  88 NW6       30.05S
FRANKFORT      CLEAR     56  54  93 CALM      29.99F
GAYLORD        CLEAR     52  48  86 CALM      30.02S
GRAYLING       CLEAR     49  47  92 NW5       30.03R
HARBOR SPRINGS CLEAR     54  52  92 CALM      30.01S
HOUGHTON LAKE  PTCLDY    53  51  93 CALM      30.02S
OSCODA         CLEAR     56  51  83 CALM      29.99S
PELLSTON       CLEAR     54  49  83 NW6       30.01S
ROGERS CITY    CLEAR     59  50  71 W5        30.01R
TRAVERSE CITY  PTCLDY    58  52  80 N3        30.00R
$$
MIZ007>008-015-310600-
EASTERN UPPER MICHIGAN

CITY           SKY/WX    TMP DP  RH WIND       PRES   REMARKS
KINROSS          N/A     52  48  87 NW8       30.00S
MACKINAC ISLAN CLEAR     55  49  80 N5        30.01R
NEWBERRY       CLEAR     49  46  91 NW7       30.03S
S. S. MARIE    CLEAR     51  46  83 NW8       29.99R
MUNISING         N/A     49  44  83 N10       30.07R
$$
MIZ004>006-011>014-085-310600-
CENTRAL UPPER MICHIGAN

CITY           SKY/WX    TMP DP  RH WIND       PRES   REMARKS
MANISTIQUE     CLEAR     50  47  90 NW6       30.04S
ESCANABA       CLEAR     55  46  71 N8        30.04S
MENOMINEE      CLEAR     61  50  67 NE10G18   30.01S
SAWYER-GWINN   CLEAR     46  42  85 N12       30.09R
$$
MIZ001>003-009>011-084-310600-
WESTERN UPPER MICHIGAN

CITY           SKY/WX    TMP DP  RH WIND       PRES   REMARKS
IRON MOUNTAIN  CLEAR     56  48  74 NE9       30.04R
HOUGHTON       CLEAR     47  42  83 E3        30.09R
COPPER HARBOR    N/A     46  42  86 NE3       30.11R
IRONWOOD       CLOUDY    61  48  63 E5        30.03R
$$

ABBREVIATIONS USED IN REMARKS
   TC - TEMPERATURE IN CELSIUS
  WCI - WIND CHILL INDEX
   HX - HEAT INDEX
  VSB - VISIBILITY




USA.gov is the U.S. government's official web portal to all federal, state and local government web resources and services.